This is the latest recevied weather packets stored in our database for station/object KE4EST. If no packets are shown the sender has not sent any weather packets the latest 10 day(s).
| Time | Temp. | Humidity | Pressure | Rain* | Wind** | Luminosity | Snow |
|---|---|---|---|---|---|---|---|
| 1778259744 | 20.56° C | 47% | 1016.5 hPa | 0 mm | - | 710 W/m² | - |
| 1778259441 | 19.44° C | 50% | 1016.8 hPa | 0 mm | - | 409 W/m² | - |
| 1778259138 | 19.44° C | 52% | 1016.5 hPa | 0 mm | - | 379 W/m² | - |
| 1778258835 | 18.89° C | 54% | 1016.9 hPa | 0 mm | - | 256 W/m² | - |
| 1778258531 | 18.89° C | 59% | 1017.1 hPa | 0 mm | - | 554 W/m² | - |
| 1778258229 | 17.78° C | 58% | 1017.2 hPa | 0 mm | - | 281 W/m² | - |
| 1778257926 | 18.33° C | 57% | 1017.2 hPa | 0 mm | - | 350 W/m² | - |
| 1778257621 | 19.44° C | 55% | 1017.2 hPa | 0 mm | - | 277 W/m² | - |
| 1778257319 | 18.89° C | 61% | 1017.3 hPa | 0 mm | - | 60 W/m² | - |
| 1778257016 | 18.89° C | 57% | 1017.3 hPa | 0 mm | - | 425 W/m² | - |
| 1778256713 | 18.89° C | 58% | 1017.4 hPa | 0 mm | - | 338 W/m² | - |
| 1778256411 | 17.78° C | 60% | 1017.6 hPa | 0 mm | - | 655 W/m² | - |
| 1778256109 | 17.78° C | 64% | 1017.7 hPa | 0 mm | - | 649 W/m² | - |
| 1778255806 | 17.78° C | 62% | 1017.7 hPa | 0 mm | - | 89 W/m² | - |
| 1778255502 | 17.22° C | 67% | 1017.8 hPa | 0 mm | - | 303 W/m² | - |
| 1778255200 | 16.67° C | 61% | 1017.6 hPa | 0 mm | - | 60 W/m² | - |
| 1778254896 | 16.67° C | 63% | 1017.7 hPa | 0 mm | - | 226 W/m² | - |
| 1778254593 | 16.67° C | 68% | 1017.7 hPa | 0 mm | - | 127 W/m² | - |
| 1778254290 | 16.67° C | 67% | 1018 hPa | 0 mm | - | 47 W/m² | - |
| 1778253987 | 16.11° C | 67% | 1018 hPa | 0 mm | - | 223 W/m² | - |
| 1778253681 | 15.56° C | 76% | 1018.1 hPa | 0 mm | - | 43 W/m² | - |
| 1778253379 | 15.56° C | 66% | 1018.2 hPa | 0 mm | - | 277 W/m² | - |
| 1778253070 | 15° C | 67% | 1018.1 hPa | 0 mm | - | 42 W/m² | - |
| 1778252767 | 14.44° C | 67% | 1018.4 hPa | 0 mm | - | 49 W/m² | - |
| 1778252463 | 14.44° C | 71% | 1018.2 hPa | 0 mm | - | 53 W/m² | - |
* Rain latest hour (hover to see other rain measurements)
** Current wind speed in m/s (hover to see current wind gust speed)